Regional Weather Roundup
Issued by NWS Midland/Odessa, TX

Skip options and go directly to product.
Home | Oldest Version | Next Version | Current Version | All | Text Only | Save Text | Print | Product List | Glossary On

Skip product version selection by date and time.   
415
ASUS44 KMAF 201502
RWRMAF
MIDLAND AREA WEATHER ROUNDUP
NATIONAL WEATHER SERVICE MIDLAND TX
1000 AM CDT SAT SEP 20 2014

...IN SOUTHWEST TEXAS AND SOUTHEAST NEW MEXICO...

CITY           SKY/WX    TMP DP  RH WIND       PRES   REMARKS
ALPINE         MOSUNNY   73  65  74 CALM      30.16R
ANDREWS        DRIZZLE   71  70  97 S8        30.03S
ARTESIA        NOT AVBL
BIG SPRING     CLOUDY    74  70  87 SE12      30.04R
CARLSBAD       CLOUDY    72 N/A N/A N6        30.04R
DRYDEN           N/A     80  72  76 E8        29.98R
FORT STOCKTON  CLOUDY    70  69  97 W8        30.02R
GUAD PASS      FOG       65  65 100 NE10        N/A  VSB 1/4
HOBBS          PTSUNNY   70  70 100 NW6       30.07R
MARFA          CLOUDY    68  64  88 SE3       30.15R
MIDLAND AIRPK  NOT AVBL
MIDLAND INTL   PTSUNNY   73  70  90 SE10      30.02R
ODESSA         CLOUDY    73  69  87 S7        30.03R
PECOS          MOSUNNY   73  70  91 SW6       30.00R
PRESIDIO       FAIR      79  66  65 E6        30.01R
SEMINOLE       CLOUDY    69  69  99 CALM      30.06R FOG
SNYDER         TSTM      70  69  98 SE9       30.03R
WINK           CLOUDY    74  71  91 E7        30.00R
$$
...OTHER STATIONS IN TEXAS...

CITY           SKY/WX    TMP DP  RH WIND       PRES   REMARKS
ABILENE        CLOUDY    77  70  79 S12       30.03R
AMARILLO       MOSUNNY   71  66  84 S7        30.09S
AUSTIN         CLOUDY    77  73  87 E7        29.98R
BROWNSVILLE    MOSUNNY   85  77  77 CALM      29.89R
CORPUS CHRISTI PTSUNNY   84  77  79 E10       29.91R
DALLAS FTW     MOSUNNY   81  70  69 SE9       30.01R
DEL RIO        CLOUDY    79  74  84 E8        29.94R
EL PASO        MOSUNNY   72  65  78 N6        30.06R
HOUSTON INT    MOSUNNY   80  73  79 E10       29.97R
LUBBOCK        CLOUDY    70  67  90 SE8       30.06R
SAN ANGELO     CLOUDY    75  70  84 SE8       30.01R
SAN ANTONIO    CLOUDY    79  73  82 E8        29.98R
WACO           CLOUDY    77  72  84 SE6       30.01R
WICHITA FALLS  NOT AVBL
$$
...OTHER LOCATIONS IN NEW MEXICO...

CITY           SKY/WX    TMP DP  RH WIND       PRES   REMARKS
ALAMAGORDO     MOSUNNY   72  64  78 SE7       30.09R
ALBUQUERQUE    SUNNY     66  57  72 N8        30.18R
CANNON AFB     CLOUDY    66  66 100 E6        30.12R
CLOVIS           N/A     64  61  88 NE6       30.14R
HOLLOMAN AFB   MOSUNNY   71  64  78 CALM      30.06R
ROSWELL        CLOUDY    70  66  87 N10       30.07S
RUIDOSO        MOSUNNY   61  59  94 W5        30.25S
SANTA FE       SUNNY     65  53  65 N9        30.24R
TRUTH OR CONSE MOSUNNY   70  62  76 N7        30.11S
TUCUMCARI      MOSUNNY   72  60  66 W7        30.09R
$$

USA.gov is the U.S. government's official web portal to all federal, state and local government web resources and services.